Tracking 31027 objects as of 19-Jul-2025
HD Live streaming from Space Station
objects crossing your sky now

SL-12 DEB

Track SL-12 DEB now!
10-day predictions


NORAD ID: 27918
Int'l Code: 1987-079AB
Perigee: 740.9 km
Apogee: 17,535.8 km
Inclination: 66.0 °
Period: 320.4 minutes
Semi major axis: 15509 km
RCS: 0.3222 m2 (medium)
Launch date: September 16, 1987
Source: Commonwealth of Independent States (former USSR) (CIS)
Launch site: TYURATAM MISSILE AND SPACE COMPLEX (TTMTR)

Note: This is SATELLITE DEBRIS
Your satellite tracking list
IRIDIUM 135
Track 1 satellite(s)




NASA's NSSDC Master Catalog

Two Line Element Set (TLE):
1 27918U 87079AB  25196.23343942  .00000463  00000-0  39916-2 0  9994
2 27918  66.0352 184.6946 5414413 304.1236  15.7090  4.49482238202257
Source of the keplerian elements: AFSPC